Weather History for KHRX - November, 2012

Change the Weather History Date:

Saturday, November 3, 2012

  Actual Average (KAMA) Record (KAMA)
Temperature  
Mean Temperature 52 °F 52 °F  
Max Temperature 64 °F 66 °F 84 °F (1931)
Min Temperature 41 °F 38 °F 7 °F (1991)
Degree Days  
Heating Degree Days 12 13  
Month to date heating degree days 38  
Since 1 July heating degree days 318  
Cooling Degree Days 0 0  
Month to date cooling degree days 0  
Year to date cooling degree days 1398  
Growing Degree Days 2 (Base 50)    
Moisture  
Dew Point 33 °F    
Average Humidity 56    
Maximum Humidity 76    
Minimum Humidity 30    
Precipitation  
Precipitation 0.00 in 0.04 in 0.88 in (1986)
Month to date precipitation 0.11  
Year to date precipitation 18.96  
Snow  
Snow 0.00 in 0.10 in 2.10 in (1990)
Month to date snowfall 0.2  
Since 1 July snowfall 0.4  
Since 1 September snowfall 0.4  
Snow Depth -    
Sea Level Pressure  
Sea Level Pressure 30.18 in    
Wind  
Wind Speed 8 mph (ENE)    
Max Wind Speed 14 mph    
Max Gust Speed 18 mph    
Visibility 10 miles    
Events      
T = Trace of Precipitation, MM = Missing Value Source: NWS Daily Summary

Daily Weather History Graph

Daily Weather History Graph

Search for Another Location

Airport or City:

Trip Planner

Search our weather history database for the weather conditions in past years. The results will help you decide how hot, cold, wet, or windy it might be!

Date:

Astronomy

Nov. 03, 2012 Rise Set
Actual Time 8:12 AM CDT 6:52 PM CDT
Civil Twilight 7:46 AM CDT 7:19 PM CDT
Nautical Twilight 7:16 AM CDT 7:49 PM CDT
Astronomical Twilight 6:46 AM CDT 8:18 PM CDT
Moon 10:39 PM CDT (11/3) 12:14 PM CDT (11/3)
Length of Visible Light 11h 32m
Length of Day
10h 40m
Waning Gibbous, 80% of the Moon is Illuminated
Nov 3
Waning Gibbous
Nov 6
Last Quarter
Nov 13
New
Nov 20
First Quarter
Nov 28
Full

Hourly Weather History & Observations

Time (CDT) Temp. Windchill Dew Point Humidity Pressure Visibility Wind Dir Wind Speed Gust Speed Precip Events Conditions
12:15 AM 44.6 °F 39.7 °F 30.2 °F 57% 30.06 in 10.0 mi ENE 9.2 mph - N/A   Clear
12:35 AM 44.6 °F 40.7 °F 30.2 °F 57% 30.07 in 10.0 mi ENE 6.9 mph - N/A   Clear
12:55 AM 42.8 °F 39.3 °F 30.2 °F 61% 30.08 in 10.0 mi NNE 5.8 mph - N/A   Clear
1:15 AM 42.8 °F 39.3 °F 30.2 °F 61% 30.09 in 10.0 mi NE 5.8 mph - N/A   Clear
1:35 AM 44.6 °F 39.7 °F 30.2 °F 57% 30.09 in 10.0 mi NE 9.2 mph - N/A   Clear
1:55 AM 48.2 °F - 32.0 °F 54% 30.09 in 10.0 mi NE 11.5 mph - N/A   Clear
2:15 AM 48.2 °F - 32.0 °F 54% 30.10 in 10.0 mi NE 11.5 mph - N/A   Clear
2:35 AM 46.4 °F 41.9 °F 32.0 °F 57% 30.11 in 10.0 mi NNE 9.2 mph - N/A   Clear
2:55 AM 42.8 °F 39.3 °F 32.0 °F 66% 30.11 in 10.0 mi NNE 5.8 mph - N/A   Clear
3:15 AM 41.0 °F 35.2 °F 32.0 °F 70% 30.10 in 10.0 mi NE 9.2 mph - N/A   Clear
3:35 AM 41.0 °F 37.1 °F 32.0 °F 70% 30.12 in 10.0 mi North 5.8 mph - N/A   Clear
3:55 AM 42.8 °F 37.0 °F 32.0 °F 66% 30.12 in 10.0 mi NE 10.4 mph - N/A   Clear
4:15 AM 42.8 °F 36.6 °F 32.0 °F 66% 30.12 in 10.0 mi NE 11.5 mph - N/A   Clear
4:35 AM 42.8 °F 39.3 °F 32.0 °F 66% 30.13 in 10.0 mi NNE 5.8 mph - N/A   Clear
4:55 AM 42.8 °F 39.3 °F 33.8 °F 70% 30.15 in 10.0 mi North 5.8 mph - N/A   Clear
5:15 AM 41.0 °F 38.0 °F 32.0 °F 70% 30.16 in 10.0 mi NNE 4.6 mph - N/A   Clear
5:35 AM 41.0 °F 36.4 °F 33.8 °F 76% 30.16 in 10.0 mi North 6.9 mph - N/A   Clear
5:55 AM 41.0 °F 35.2 °F 33.8 °F 76% 30.16 in 10.0 mi NNE 9.2 mph - N/A   Clear
6:15 AM 41.0 °F 36.4 °F 33.8 °F 76% 30.17 in 10.0 mi NNE 6.9 mph - N/A   Clear
6:35 AM 41.0 °F 34.3 °F 33.8 °F 76% 30.18 in 10.0 mi NNE 11.5 mph - N/A   Clear
6:55 AM 41.0 °F 35.2 °F 33.8 °F 76% 30.18 in 10.0 mi NNE 9.2 mph - N/A   Clear
7:15 AM 41.0 °F 36.4 °F 32.0 °F 70% 30.19 in 10.0 mi NNE 6.9 mph - N/A   Clear
7:35 AM 41.0 °F 33.9 °F 33.8 °F 76% 30.18 in 10.0 mi NNE 12.7 mph - N/A   Clear
7:55 AM 41.0 °F 35.2 °F 32.0 °F 70% 30.19 in 10.0 mi NNE 9.2 mph - N/A   Clear
8:15 AM 41.0 °F 34.3 °F 33.8 °F 76% 30.21 in 10.0 mi NE 11.5 mph - N/A   Clear
8:35 AM 41.0 °F 34.3 °F 33.8 °F 76% 30.21 in 10.0 mi NNE 11.5 mph - N/A   Scattered Clouds
8:55 AM 41.0 °F 33.9 °F 33.8 °F 76% 30.22 in 10.0 mi NNE 12.7 mph - N/A   Scattered Clouds
9:15 AM 42.8 °F 37.0 °F 33.8 °F 70% 30.23 in 10.0 mi NNE 10.4 mph - N/A   Clear
9:35 AM 42.8 °F 38.0 °F 33.8 °F 70% 30.23 in 10.0 mi NNE 8.1 mph - N/A   Clear
9:55 AM 44.6 °F 38.8 °F 33.8 °F 66% 30.24 in 10.0 mi NNE 11.5 mph - N/A   Clear
10:15 AM 46.4 °F 41.1 °F 33.8 °F 62% 30.24 in 10.0 mi NE 11.5 mph - N/A   Clear
10:35 AM 46.4 °F 40.7 °F 33.8 °F 62% 30.24 in 10.0 mi NE 12.7 mph - N/A   Scattered Clouds
10:55 AM 48.2 °F - 33.8 °F 58% 30.24 in 10.0 mi NE 10.4 mph 18.4 mph N/A   Scattered Clouds
11:15 AM 50.0 °F - 35.6 °F 58% 30.23 in 10.0 mi ENE 13.8 mph - N/A   Clear
11:35 AM 51.8 °F - 35.6 °F 54% 30.23 in 10.0 mi ENE 11.5 mph - N/A   Clear
11:55 AM 53.6 °F - 35.6 °F 51% 30.23 in 10.0 mi ENE 9.2 mph - N/A   Clear
12:15 PM 53.6 °F - 35.6 °F 51% 30.22 in 10.0 mi ENE 10.4 mph - N/A   Clear
12:35 PM 55.4 °F - 35.6 °F 47% 30.22 in 10.0 mi ENE 11.5 mph 17.3 mph N/A   Clear
12:55 PM 57.2 °F - 35.6 °F 44% 30.22 in 10.0 mi ENE 10.4 mph - N/A   Clear
1:15 PM 55.4 °F - 33.8 °F 44% 30.23 in 10.0 mi ESE 6.9 mph - N/A   Scattered Clouds
1:35 PM 59.0 °F - 33.8 °F 39% 30.22 in 10.0 mi SE 6.9 mph - N/A   Clear
1:55 PM 60.8 °F - 33.8 °F 36% 30.22 in 10.0 mi ESE 3.5 mph - N/A   Clear
2:15 PM 60.8 °F - 32.0 °F 34% 30.20 in 10.0 mi East 5.8 mph 16.1 mph N/A   Clear
2:35 PM 60.8 °F - 32.0 °F 34% 30.18 in 10.0 mi East 6.9 mph 16.1 mph N/A   Clear
2:55 PM 60.8 °F - 32.0 °F 34% 30.17 in 10.0 mi East 9.2 mph - N/A   Clear
3:15 PM 60.8 °F - 32.0 °F 34% 30.17 in 10.0 mi East 9.2 mph - N/A   Clear
3:35 PM 62.6 °F - 32.0 °F 32% 30.16 in 10.0 mi East 5.8 mph - N/A   Clear
3:55 PM 62.6 °F - 32.0 °F 32% 30.16 in 10.0 mi East 9.2 mph - N/A   Clear
4:15 PM 62.6 °F - 32.0 °F 32% 30.17 in 10.0 mi East 4.6 mph - N/A   Clear
4:35 PM 62.6 °F - 32.0 °F 32% 30.17 in 10.0 mi East 4.6 mph - N/A   Clear
4:55 PM 64.4 °F - 32.0 °F 30% 30.17 in 10.0 mi SSE 5.8 mph - N/A   Clear
5:15 PM 62.6 °F - 32.0 °F 32% 30.17 in 10.0 mi ESE 3.5 mph - N/A   Clear
5:35 PM 62.6 °F - 32.0 °F 32% 30.17 in 10.0 mi ESE 6.9 mph - N/A   Clear
5:55 PM 62.6 °F - 32.0 °F 32% 30.17 in 10.0 mi SE 6.9 mph - N/A   Clear
6:15 PM 60.8 °F - 32.0 °F 34% 30.17 in 10.0 mi SSE 6.9 mph - N/A   Clear
6:35 PM 59.0 °F - 32.0 °F 36% 30.17 in 10.0 mi SE 5.8 mph - N/A   Clear
6:55 PM 53.6 °F - 32.0 °F 44% 30.17 in 10.0 mi SE 6.9 mph - N/A   Clear
7:15 PM 51.8 °F - 32.0 °F 47% 30.17 in 10.0 mi SE 5.8 mph - N/A   Clear
7:35 PM 50.0 °F - 32.0 °F 50% 30.18 in 10.0 mi ESE 4.6 mph - N/A   Clear
7:55 PM 50.0 °F - 32.0 °F 50% 30.18 in 10.0 mi ESE 4.6 mph - N/A   Clear
8:15 PM 48.2 °F - 32.0 °F 54% 30.18 in 10.0 mi ESE 4.6 mph - N/A   Clear
8:35 PM 48.2 °F - 33.8 °F 58% 30.19 in 10.0 mi ESE 4.6 mph - N/A   Clear
8:55 PM 46.4 °F 45.2 °F 32.0 °F 57% 30.19 in 10.0 mi East 3.5 mph - N/A   Clear
9:15 PM 46.4 °F 44.3 °F 32.0 °F 57% 30.19 in 10.0 mi ESE 4.6 mph - N/A   Clear
9:35 PM 46.4 °F 44.3 °F 32.0 °F 57% 30.19 in 10.0 mi East 4.6 mph - N/A   Clear
9:55 PM 44.6 °F 43.1 °F 32.0 °F 61% 30.20 in 10.0 mi East 3.5 mph - N/A   Clear
10:15 PM 44.6 °F 43.1 °F 32.0 °F 61% 30.20 in 10.0 mi East 3.5 mph - N/A   Clear
10:35 PM 42.8 °F 40.1 °F 32.0 °F 66% 30.20 in 10.0 mi ENE 4.6 mph - N/A   Clear
10:55 PM 42.8 °F 38.0 °F 32.0 °F 66% 30.21 in 10.0 mi SE 8.1 mph - N/A   Clear
11:15 PM 42.8 °F 38.0 °F 33.8 °F 70% 30.21 in 10.0 mi SSE 8.1 mph - N/A   Clear
11:35 PM 44.6 °F 39.7 °F 33.8 °F 66% 30.20 in 10.0 mi SSE 9.2 mph - N/A   Clear
11:55 PM 44.6 °F - 33.8 °F 66% 30.22 in 10.0 mi North - - N/A   Clear